Weather History for Pensacola NAS, FL

Change the Weather History Date:

Monday, April 1, 2013

  Actual Average Record
Temperature  
Mean Temperature 64 °F -  
Max Temperature 77 °F 70 °F 81 °F (2012)
Min Temperature 51 °F 54 °F 35 °F (2004)
Degree Days  
Heating Degree Days 2    
Growing Degree Days 14 (Base 50)    
Moisture  
Dew Point 56 °F    
Average Humidity 74    
Maximum Humidity 100    
Minimum Humidity 42    
Precipitation  
Precipitation 0.00 in - - ()
Sea Level Pressure  
Sea Level Pressure 30.00 in    
Wind  
Wind Speed 5 mph (NW)    
Max Wind Speed 12 mph    
Max Gust Speed 16 mph    
Visibility 10 miles    
Events Rain    
Averages and records for this station are not official NWS values.
T = Trace of Precipitation, MM = Missing Value Source: NWS Daily Summary

Daily Weather History Graph

Daily Weather History Graph

Search for Another Location

Airport:

Trip Planner

Search our weather history database for the weather conditions in past years. The results will help you decide how hot, cold, wet, or windy it might be!

Date:

Astronomy

Apr. 01, 2013 Rise Set
Actual Time 6:38 AM CDT 7:08 PM CDT
Civil Twilight 6:14 AM CDT 7:32 PM CDT
Nautical Twilight 5:45 AM CDT 8:00 PM CDT
Astronomical Twilight 5:16 AM CDT 8:29 PM CDT
Moon No Moon Rise 10:42 AM CDT (4/1)
Length of Visible Light 13h 18m
Length of Day
12h 30m
Waning Gibbous, 67% of the Moon is Illuminated
Apr 1
Waning Gibbous
Apr 2
Last Quarter
Apr 10
New
Apr 18
First Quarter
Apr 25
Full

Hourly Weather History & Observations

Time (CDT) Temp. Dew Point Humidity Pressure Visibility Wind Dir Wind Speed Gust Speed Precip Events Conditions
12:56 AM 64.9 °F 62.1 °F 90% 29.92 in 10.0 mi WSW 5.8 mph - N/A   Clear
1:56 AM 64.9 °F 60.1 °F 84% 29.93 in 10.0 mi WSW 6.9 mph - N/A   Clear
2:56 AM 63.0 °F 60.1 °F 90% 29.94 in 10.0 mi Calm Calm - N/A   Clear
3:56 AM 62.1 °F 60.1 °F 93% 29.94 in 10.0 mi WNW 3.5 mph - N/A   Clear
4:28 AM 60.8 °F 60.8 °F 100% 29.94 in 10.0 mi NW 4.6 mph - N/A   Partly Cloudy
4:56 AM 60.1 °F 59.0 °F 96% 29.96 in 10.0 mi NW 3.5 mph - N/A   Partly Cloudy
5:56 AM 60.1 °F 59.0 °F 96% 29.98 in 10.0 mi Calm Calm - N/A   Clear
6:00 AM 60.8 °F 59.0 °F 94% 29.98 in 10.0 mi WNW 3.5 mph - N/A   Mostly Cloudy
6:56 AM 60.1 °F 57.9 °F 93% 30.00 in 10.0 mi WNW 5.8 mph - N/A   Partly Cloudy
7:56 AM 63.0 °F 59.0 °F 87% 30.02 in 10.0 mi NW 4.6 mph - N/A   Clear
8:56 AM 64.9 °F 57.0 °F 75% 30.02 in 10.0 mi NW 11.5 mph - N/A   Partly Cloudy
9:56 AM 68.0 °F 57.9 °F 70% 30.04 in 10.0 mi NNW 10.4 mph - N/A   Partly Cloudy
10:56 AM 69.1 °F 57.0 °F 65% 30.04 in 10.0 mi North 8.1 mph - N/A   Partly Cloudy
11:56 AM 71.1 °F 57.0 °F 61% 30.05 in 10.0 mi NNW 11.5 mph - N/A   Partly Cloudy
12:56 PM 75.0 °F 57.0 °F 53% 30.04 in 10.0 mi North 10.4 mph 16.1 mph N/A   Partly Cloudy
1:56 PM 75.0 °F 55.0 °F 50% 30.02 in 10.0 mi NNW 8.1 mph - N/A   Partly Cloudy
2:56 PM 75.9 °F 55.0 °F 48% 30.00 in 10.0 mi NW 8.1 mph 16.1 mph N/A   Partly Cloudy
3:56 PM 75.9 °F 54.0 °F 46% 30.00 in 10.0 mi North 6.9 mph - N/A   Partly Cloudy
4:56 PM 75.9 °F 51.1 °F 42% 29.99 in 10.0 mi North 8.1 mph - N/A   Scattered Clouds
5:56 PM 75.0 °F 52.0 °F 44% 29.99 in 10.0 mi NNW 6.9 mph - N/A   Scattered Clouds
6:56 PM 70.0 °F 53.1 °F 55% 29.99 in 10.0 mi NNW 4.6 mph - N/A   Clear
7:56 PM 66.9 °F 53.1 °F 61% 30.01 in 10.0 mi North 6.9 mph - N/A   Clear
8:56 PM 64.0 °F 53.1 °F 67% 30.03 in 10.0 mi North 3.5 mph - N/A   Clear
9:56 PM 57.9 °F 53.1 °F 84% 30.04 in 10.0 mi Calm Calm - N/A   Clear
10:56 PM 52.0 °F 50.0 °F 93% 30.04 in 10.0 mi Calm Calm - N/A   Clear
11:56 PM 51.1 °F 50.0 °F 96% 30.05 in 10.0 mi Calm Calm - 0.00 in Rain Light Rain